Погода в Снетинове

Россия / Ивановская область     57°09′47″N   41°18′35″E
темп.,
°C
ветер,
м/с
пор.,
м/с
влажн.,
%
обл.,
%
осадки,
мм/ч
давл.,
гПа
погр.,
м
9 марта, вт
вт900:00−15ссз489781 0.0 1007146
03:00−18ссз479875 0.1 1010119
06:00−21ссз369979 0.0 1012108
09:00−20ссз469677 0.1 1014218
12:00−17ссз469371 0.0 1015338
15:00−15ссз579186 0.0 1016489
18:00−17ссз4993100 0.1 1018348
21:00−19с4996100 0.1 1020310
10 марта, ср
ср1000:00−22с489794 0.1 1022221
03:00−26ссз479788 0.1 1023124
06:00−28ссз469715 0.0 1025106
09:00−25ссз46957 0.0 1027221
12:00−19ссз45910 0.0 1027311
15:00−15сз58850 0.0 1027520
18:00−17сз499372 0.0 1027302
21:00−20сз469984 0.1 1028121
11 марта, чт
чт1100:00−21сз3410091 0.0 102979
03:00−22сз349957 0.0 103048
06:00−23сз34990 0.0 103155
09:00−18сз47950 0.0 1031213
12:00−13сз359159 0.0 1031278
15:00−10зсз358952 0.0 1030399
18:00−13з339455 0.0 103020
21:00−16з349527 0.0 103137
12 марта, пт
пт1200:00−18зюз34960 0.0 103133
03:00−18зюз34970 0.0 103168
06:00−19юз34930 0.0 103184
09:00−15юз49831 0.0 1030275
12:00−9юз597528 0.0 1029540
15:00−8ююз587714 0.0 1028629
18:00−11ююз410850 0.0 1028218
21:00−14ююз512880 0.0 1028292
13 марта, сб
сб1300:00−16ююз512900 0.0 1027279
03:00−17ю513920 0.0 1026291
06:00−17ю513890 0.0 1025286
09:00−13ю713830 0.0 1024426
12:00−8ю7128423 0.0 1022748
15:00−7ю7129161 0.3 1020922
18:00−6ю61293100 0.6 1018762
21:00−6ю61394100 0.9 1017545